Danbury, CT

8:21 AM EDT on July 22, 2017 (GMT -0400)
Danbury Municipal

Weather History for KDXR - January, 2001

Change the Weather History Date:

Friday, January 19, 2001

  Actual Average Record
Temperature  
Mean Temperature 33 °F -  
Max Temperature 36 °F 31 °F 58 °F (1951)
Min Temperature 30 °F 15 °F -8 °F (1971)
Degree Days  
Heating Degree Days 32    
Moisture  
Dew Point 32 °F    
Average Humidity 92    
Maximum Humidity 100    
Minimum Humidity 81    
Precipitation  
Precipitation 0.61 in - - ()
Sea Level Pressure  
Sea Level Pressure 29.92 in    
Wind  
Wind Speed 3 mph (NE)    
Max Wind Speed 7 mph    
Max Gust Speed -    
Visibility 3 miles    
Events Fog , Rain , Snow    
Averages and records for this station are not official NWS values.
T = Trace of Precipitation, MM = Missing Value Source: NWS Daily Summary

Daily Weather History Graph

Daily Weather History Graph

Search for Another Location

Airport or City:

Trip Planner

Search our weather history database for the weather conditions in past years. The results will help you decide how hot, cold, wet, or windy it might be!

Date:

Astronomy

Jan. 19, 2001 Rise Set
Actual Time 7:15 AM EST 4:54 PM EST
Civil Twilight 6:45 AM EST 5:24 PM EST
Nautical Twilight 6:11 AM EST 5:58 PM EST
Astronomical Twilight 5:38 AM EST 6:31 PM EST
Moon 3:06 AM EST (1/19) 1:13 PM EST (1/19)
Length of Visible Light 10h 39m
Length of Day
9h 38m
Waning Crescent, 20% of the Moon is Illuminated
Jan 19
Waning Crescent
Jan 24
New
Feb 1
First Quarter
Feb 8
Full
Feb 14
Last Quarter

Hourly Weather History & Observations

Time (EST) Temp. Windchill Dew Point Humidity Pressure Visibility Wind Dir Wind Speed Gust Speed Precip Events Conditions
12:19 AM 30.2 °F 26.7 °F 30.2 °F 100% 30.10 in 0.8 mi NE 3.5 mph - N/A   Mist
12:53 AM 30.9 °F - 30.9 °F 100% 30.10 in 0.5 mi Calm Calm - N/A Fog Light Freezing Fog
1:53 AM 32.0 °F 28.7 °F 30.9 °F 96% 30.09 in 0.2 mi ENE 3.5 mph - N/A Fog Fog
2:53 AM 32.0 °F 28.7 °F 30.9 °F 96% 30.06 in 0.2 mi ENE 3.5 mph - N/A Fog Fog
3:53 AM 32.0 °F 28.7 °F 30.9 °F 96% 30.05 in 0.2 mi NE 3.5 mph - N/A Fog Fog
4:53 AM 32.0 °F - 32.0 °F 100% 30.03 in 0.2 mi Calm Calm - N/A Fog Fog
5:31 AM 32.0 °F 27.5 °F 32.0 °F 100% 30.00 in 0.2 mi ENE 4.6 mph - 0.00 in Fog , Rain Light Freezing Rain
5:53 AM 32.0 °F 27.5 °F 32.0 °F 100% 30.01 in 0.5 mi NE 4.6 mph - 0.00 in Fog , Rain Light Freezing Rain
6:25 AM 32.0 °F - 32.0 °F 100% 30.00 in 1.2 mi Calm Calm - 0.00 in Rain Light Freezing Rain
6:46 AM 32.0 °F - 32.0 °F 100% 30.01 in 2.0 mi Calm Calm - 0.00 in Rain Light Freezing Rain
6:53 AM 32.0 °F 28.7 °F 32.0 °F 100% 30.01 in 1.5 mi ENE 3.5 mph - 0.00 in Rain Light Freezing Rain
7:12 AM 32.0 °F 28.7 °F 32.0 °F 100% 30.00 in 1.2 mi NE 3.5 mph - 0.00 in Rain Light Rain
7:22 AM 32.0 °F 28.7 °F 32.0 °F 100% 30.00 in 1.2 mi NNE 3.5 mph - 0.00 in Rain Light Freezing Rain
7:53 AM 32.0 °F - 32.0 °F 100% 30.01 in 1.2 mi Calm Calm - 0.09 in Rain Light Freezing Rain
8:10 AM 32.0 °F - 32.0 °F 100% 30.00 in 2.0 mi Calm Calm - 0.01 in Rain Light Freezing Rain
8:36 AM 33.8 °F - 32.0 °F 93% 30.00 in 2.5 mi Calm Calm - 0.02 in Snow Light Snow
8:45 AM 33.8 °F 29.6 °F 32.0 °F 93% 29.99 in 2.5 mi ENE 4.6 mph - 0.03 in Rain Light Freezing Rain
8:53 AM 33.1 °F 30.0 °F 32.0 °F 96% 30.00 in 2.5 mi ENE 3.5 mph - 0.04 in Rain Light Freezing Rain
9:37 AM 33.8 °F 29.6 °F 32.0 °F 93% 29.97 in 1.8 mi ESE 4.6 mph - 0.05 in Rain Light Freezing Rain
9:44 AM 33.8 °F 30.8 °F 32.0 °F 93% 29.97 in 2.0 mi ENE 3.5 mph - 0.06 in Rain Light Freezing Rain
9:53 AM 33.1 °F 30.0 °F 32.0 °F 96% 29.99 in 2.0 mi ENE 3.5 mph - 0.06 in Rain Light Freezing Rain
10:16 AM 33.8 °F 30.8 °F 32.0 °F 93% 29.96 in 2.5 mi NNE 3.5 mph - 0.02 in Rain Light Freezing Rain
10:31 AM 33.8 °F 29.6 °F 32.0 °F 93% 29.94 in 1.8 mi NE 4.6 mph - 0.03 in Rain Light Freezing Rain
10:39 AM 33.8 °F 29.6 °F 32.0 °F 93% 29.93 in 2.0 mi NNE 4.6 mph - 0.04 in Rain Light Freezing Rain
10:53 AM 33.1 °F 28.7 °F 32.0 °F 96% 29.94 in 2.0 mi NNE 4.6 mph - 0.05 in Rain Light Rain
11:01 AM 33.8 °F 29.6 °F 32.0 °F 93% 29.91 in 2.0 mi NE 4.6 mph - 0.01 in Rain Light Freezing Rain
11:14 AM 33.8 °F 29.6 °F 32.0 °F 93% 29.91 in 1.8 mi NNE 4.6 mph - 0.02 in Rain Light Freezing Rain
11:53 AM 34.0 °F 29.8 °F 32.0 °F 92% 29.89 in 1.8 mi NE 4.6 mph - 0.05 in Rain Light Freezing Rain
12:08 PM 33.8 °F 29.6 °F 32.0 °F 93% 29.87 in 2.0 mi NNE 4.6 mph - 0.01 in Rain Light Freezing Rain
12:13 PM 33.8 °F 28.6 °F 30.2 °F 87% 29.85 in 2.0 mi NE 5.8 mph - 0.02 in Rain Light Freezing Rain
12:22 PM 33.8 °F 29.6 °F 30.2 °F 87% 29.85 in 2.0 mi NE 4.6 mph - 0.03 in Rain Light Freezing Rain
12:29 PM 33.8 °F - 32.0 °F 93% 29.85 in 3.0 mi Calm Calm - 0.03 in Rain Light Rain
12:39 PM 33.8 °F 29.6 °F 30.2 °F 87% 29.84 in 3.0 mi NE 4.6 mph - 0.05 in Rain Light Freezing Rain
12:53 PM 34.0 °F 31.0 °F 30.0 °F 85% 29.85 in 3.0 mi NE 3.5 mph - 0.07 in Rain Light Freezing Rain
1:33 PM 33.8 °F - 30.2 °F 87% 29.83 in 5.0 mi Calm Calm - 0.03 in Rain Light Rain
1:44 PM 33.8 °F 30.8 °F 30.2 °F 87% 29.82 in 4.0 mi NNE 3.5 mph - 0.04 in Rain Light Freezing Rain
1:53 PM 34.0 °F 29.8 °F 30.9 °F 89% 29.83 in 5.0 mi NNE 4.6 mph - 0.05 in Rain Light Freezing Rain
2:53 PM 35.1 °F - 30.9 °F 85% 29.82 in 6.0 mi Calm Calm - 0.02 in Rain Light Freezing Rain
3:11 PM 35.6 °F - 32.0 °F 87% 29.81 in 1.8 mi Calm Calm - 0.01 in Rain Light Rain
3:21 PM 35.6 °F 32.8 °F 32.0 °F 87% 29.81 in 1.5 mi North 3.5 mph - 0.01 in Rain Light Freezing Rain
3:53 PM 35.1 °F - 30.9 °F 85% 29.81 in 2.0 mi Calm Calm - 0.03 in Rain Light Freezing Rain
4:05 PM 33.8 °F - 30.2 °F 87% 29.80 in 1.8 mi Calm Calm - 0.01 in Rain Light Freezing Rain
4:16 PM 35.6 °F 32.8 °F 32.0 °F 87% 29.79 in 2.0 mi ENE 3.5 mph - 0.01 in Rain Light Rain
4:21 PM 35.6 °F - 30.2 °F 81% 29.79 in 3.0 mi Calm Calm - 0.01 in Rain Light Freezing Rain
4:53 PM 35.1 °F 32.2 °F 32.0 °F 89% 29.81 in 6.0 mi NE 3.5 mph - 0.03 in Rain Light Freezing Rain
5:53 PM 35.1 °F - 32.0 °F 89% 29.84 in 4.0 mi Calm Calm - 0.04 in Rain Light Rain
6:04 PM 33.8 °F - 30.2 °F 87% 29.83 in 4.0 mi Calm Calm - 0.01 in Rain Light Freezing Rain
6:13 PM 33.8 °F - 32.0 °F 93% 29.83 in 4.0 mi Calm Calm - 0.01 in Rain Light Freezing Rain
6:53 PM 35.1 °F - 32.0 °F 89% 29.87 in 7.0 mi Calm Calm - 0.04 in Rain Light Freezing Rain
7:32 PM 35.6 °F - 32.0 °F 87% 29.87 in 6.0 mi Calm Calm - 0.02 in Rain Light Rain
7:42 PM 33.8 °F - 32.0 °F 93% 29.87 in 5.0 mi Calm Calm - 0.02 in Rain Light Freezing Rain
7:53 PM 34.0 °F - 32.0 °F 92% 29.88 in 4.0 mi Calm Calm - 0.02 in Rain Light Freezing Rain
8:10 PM 33.8 °F - 32.0 °F 93% 29.89 in 5.0 mi Calm Calm - 0.00 in   Overcast
8:53 PM 36.0 °F - 32.0 °F 86% 29.90 in 10.0 mi Calm Calm - 0.01 in Rain Light Rain
9:23 PM 35.6 °F - 32.0 °F 87% 29.91 in 10.0 mi Calm Calm - 0.00 in   Overcast
9:53 PM 35.1 °F 29.3 °F 32.0 °F 89% 29.91 in 9.0 mi North 6.9 mph - 0.00 in Rain Light Rain
10:53 PM 35.1 °F 32.2 °F 32.0 °F 89% 29.91 in 10.0 mi ENE 3.5 mph - 0.01 in   Overcast
11:53 PM 35.1 °F 31.0 °F 32.0 °F 89% 29.94 in 10.0 mi North 4.6 mph - N/A   Overcast